Change the Weather History Date:

Tuesday, November 25, 2014

  Actual Average Record
Temperature  
Mean Temperature 19 °F 35 °F  
Max Temperature 27 °F 44 °F 67 °F (1896)
Min Temperature 11 °F 26 °F -2 °F (1977)
Degree Days  
Heating Degree Days 46 30  
Month to date heating degree days 790 590  
Since 1 July heating degree days 1320 1072  
Cooling Degree Days 0 0  
Month to date cooling degree days 0 0  
Year to date cooling degree days 839 1003  
Moisture  
Dew Point 13 °F    
Average Humidity 76    
Maximum Humidity 88    
Minimum Humidity 63    
Precipitation  
Precipitation T in 0.08 in 1.90 in (1915)
Month to date precipitation 1.57 2.15  
Year to date precipitation 38.57 35.37  
Snow  
Snow T in 0.10 in - ()
Month to date snowfall 4.4 0.7  
Since 1 July snowfall 4.4 0.7  
Since 1 September snowfall 4.4 0.7  
Snow Depth 2.00 in    
Sea Level Pressure  
Sea Level Pressure 30.13 in    
Wind  
Wind Speed 9 mph (West)    
Max Wind Speed 23 mph    
Max Gust Speed 29 mph    
Visibility 10 miles    
Events Snow    
T = Trace of Precipitation, MM = Missing Value Source: NWS Daily Summary

Daily Weather History Graph

Daily Weather History Graph

Search for Another Location

Airport or City:

Trip Planner

Search our weather history database for the weather conditions in past years. The results will help you decide how hot, cold, wet, or windy it might be!

Date:

Astronomy

Nov. 25, 2014 Rise Set
Actual Time 7:02 AM CST 4:35 PM CST
Civil Twilight 6:31 AM CST 5:05 PM CST
Nautical Twilight 5:57 AM CST 5:39 PM CST
Astronomical Twilight 5:24 AM CST 6:13 PM CST
Moon 9:47 AM CST (11/25) 8:01 PM CST (11/25)
Length of Visible Light 10h 34m
Length of Day
9h 33m
Waxing Crescent, 13% of the Moon is Illuminated
Nov 25
Waxing Crescent
Nov 29
First Quarter
Dec 6
Full
Dec 14
Last Quarter
Dec 21
New

Hourly Weather History & Observations

Time (CST) Temp. Windchill Dew Point Humidity Pressure Visibility Wind Dir Wind Speed Gust Speed Precip Events Conditions
12:52 AM 21.9 °F 7.3 °F 14.0 °F 72% 29.96 in 10.0 mi West 18.4 mph 25.3 mph N/A   Overcast
1:52 AM 21.0 °F 9.9 °F 15.1 °F 78% 29.99 in 10.0 mi WNW 10.4 mph - N/A   Overcast
2:52 AM 21.0 °F 6.2 °F 14.0 °F 74% 30.01 in 6.0 mi NW 18.4 mph 26.5 mph 0.00 in Snow Light Snow
3:52 AM 19.9 °F 5.2 °F 12.0 °F 71% 30.05 in 10.0 mi NW 17.3 mph 23.0 mph 0.00 in   Overcast
4:52 AM 19.9 °F 6.2 °F 12.9 °F 74% 30.07 in 10.0 mi West 15.0 mph 23.0 mph N/A   Overcast
5:43 AM 17.1 °F 4.3 °F 10.0 °F 74% 30.07 in 10.0 mi West 11.5 mph - N/A   Scattered Clouds
5:52 AM 17.1 °F 3.6 °F 10.0 °F 74% 30.10 in 10.0 mi West 12.7 mph - N/A   Clear
6:52 AM 17.1 °F 5.8 °F 10.0 °F 74% 30.12 in 10.0 mi WNW 9.2 mph - N/A   Scattered Clouds
7:02 AM 17.1 °F 4.3 °F 10.0 °F 74% 30.09 in 10.0 mi WNW 11.5 mph - N/A   Mostly Cloudy
7:30 AM 16.0 °F 4.4 °F 9.0 °F 74% 30.10 in 10.0 mi West 9.2 mph - N/A   Scattered Clouds
7:43 AM 17.1 °F 7.6 °F 10.0 °F 74% 30.11 in 10.0 mi WNW 6.9 mph - N/A   Mostly Cloudy
7:52 AM 17.1 °F 3.6 °F 10.0 °F 74% 30.14 in 9.0 mi West 12.7 mph - N/A   Mostly Cloudy
8:52 AM 19.0 °F 8.2 °F 12.9 °F 77% 30.15 in 9.0 mi WNW 9.2 mph - N/A   Overcast
9:52 AM 19.9 °F 9.3 °F 14.0 °F 78% 30.17 in 10.0 mi WNW 9.2 mph - N/A   Overcast
10:32 AM 19.9 °F 11.1 °F 12.0 °F 71% 30.15 in 10.0 mi West 6.9 mph - N/A   Scattered Clouds
10:52 AM 21.0 °F 9.9 °F 14.0 °F 74% 30.19 in 10.0 mi West 10.4 mph - N/A   Scattered Clouds
11:01 AM 21.9 °F 11.0 °F 15.1 °F 75% 30.16 in 9.0 mi West 10.4 mph - N/A   Mostly Cloudy
11:29 AM 23.0 °F 12.4 °F 15.1 °F 72% 30.14 in 10.0 mi West 10.4 mph - N/A   Scattered Clouds
12:52 PM 24.1 °F 15.2 °F 15.1 °F 69% 30.16 in 10.0 mi WSW 8.1 mph - N/A   Clear
1:52 PM 26.1 °F 19.4 °F 16.0 °F 66% 30.17 in 10.0 mi West 5.8 mph - N/A   Clear
2:52 PM 26.1 °F 17.6 °F 17.1 °F 69% 30.18 in 10.0 mi WSW 8.1 mph - N/A   Clear
3:52 PM 24.8 °F 16.9 °F 17.6 °F 74% 30.15 in 10.0 mi SW 6.9 mph - N/A   Clear
4:52 PM 24.1 °F 19.7 °F 16.0 °F 71% 30.17 in 10.0 mi SSW 3.5 mph - N/A   Clear
5:52 PM 21.0 °F 16.2 °F 16.0 °F 81% 30.18 in 10.0 mi SW 3.5 mph - N/A   Clear
6:52 PM 17.1 °F 8.7 °F 14.0 °F 88% 30.18 in 10.0 mi SSE 5.8 mph - N/A   Clear
7:52 PM 15.1 °F 9.4 °F 12.0 °F 88% 30.19 in 10.0 mi ESE 3.5 mph - N/A   Clear
8:52 PM 17.1 °F 10.0 °F 12.9 °F 84% 30.19 in 10.0 mi East 4.6 mph - N/A   Clear
9:52 PM 16.0 °F - 12.0 °F 84% 30.20 in 10.0 mi Calm Calm - N/A   Clear
10:52 PM 10.9 °F -0.8 °F 7.0 °F 84% 30.18 in 9.0 mi East 8.1 mph - N/A   Clear
11:52 PM 14.0 °F 3.9 °F 10.9 °F 88% 30.17 in 8.0 mi East 6.9 mph - N/A   Clear